Home   Weather   New York   Past weeks

Flag for USA Past Weather in New York, New York, USA — Yesterday and Last 2 Weeks

Now
42 °F

Passing clouds.


Feels Like: 39 °F
Forecast: 36 / 44 °F
Wind: 5 mph from North

Location: New York City - Central Park

Current Time: Jan 19, 2017 at 10:44:53 pm

Latest Report: Jan 19, 2017 at 9:51 pm


Visibility: 10 mi

Pressure: 30.01 "Hg

Humidity: 68%

Dew Point: 32 °F

Location of New YorkLocation

Past Weather in New York — Graph

°F

New York Temperature Yesterday

Maximum temperature yesterday: 41 °F (at 3:51 pm)
Minimum temperature yesterday: 38 °F (at 12:51 am)
Average temperature yesterday: 39 °F

High & Low Weather Summary for the Past Weeks

 TemperatureHumidityPressure
High65 °F (Jan 12, 1:51 pm)100% (Jan 18, 2:20 am)30.76 "Hg (Jan 18, 2:20 am)
Low15 °F (Jan 9, 3:51 am)30% (Jan 4, 8:51 pm)29.65 "Hg (Jan 4, 8:51 pm)
Average35 °F66%30.24 "Hg
* Reported Jan 4 8:51 pm — Jan 19 8:51 pm, New York, Weather by CustomWeather, © 2017

Note: Actual official high and low records may vary slightly from our data, if they occured in-between our weather recording intervals... More about our weather records

Advertising

New York Weather History for the Previous 24 Hours

Scroll right to see more
 ConditionsComfort  
Time TempWeatherWind HumidityBarometerVisibility
8:51 pm
Thu, Jan 19
42 °FPassing clouds.No wind68%30.03 "Hg10 mi
7:51 pm43 °FOvercast.5 mph65%30.04 "Hg10 mi
6:51 pm43 °FOvercast.7 mph65%30.03 "Hg10 mi
5:51 pm44 °FOvercast.5 mph65%30.00 "Hg10 mi
4:51 pm44 °FOvercast.8 mph65%29.99 "Hg10 mi
3:51 pm44 °FOvercast.8 mph65%29.99 "Hg10 mi
2:51 pm45 °FOvercast.3 mph65%29.99 "Hg10 mi
1:51 pm45 °FOvercast.8 mph65%29.99 "Hg10 mi
1:20 pm46 °FPartly sunny.8 mph63%30.02 "Hg10 mi
12:51 pm48 °FPassing clouds.7 mph59%29.99 "Hg10 mi
11:51 am47 °FScattered clouds.6 mph61%30.01 "Hg10 mi
10:51 am46 °FSunny.7 mph66%30.03 "Hg10 mi
9:51 am43 °FSunny.5 mph76%30.05 "Hg10 mi
9:00 am41 °FScattered clouds.No wind82%30.07 "Hg10 mi
8:28 am42 °FPartly sunny.6 mph79%30.07 "Hg10 mi
7:51 am41 °FSunny.3 mph82%30.03 "Hg10 mi
6:51 am40 °FClear.3 mph86%30.02 "Hg10 mi
5:51 am41 °FPassing clouds.5 mph82%30.01 "Hg10 mi
4:51 am41 °FOvercast.No wind82%30.01 "Hg10 mi
3:51 am40 °FMostly cloudy.No wind86%30.03 "Hg10 mi
2:51 am39 °FOvercast.No wind86%30.02 "Hg10 mi
1:51 am40 °FOvercast.No wind83%30.02 "Hg10 mi
12:51 am39 °FPassing clouds.No wind86%30.01 "Hg10 mi
11:51 pm
Wed, Jan 18
40 °FOvercast.No wind86%30.01 "Hg10 mi
11:12 pm39 °FPassing clouds.No wind89%30.04 "Hg10 mi
10:51 pm40 °FMostly cloudy.No wind86%30.02 "Hg10 mi
Weather by CustomWeather, © 2017

See weather overviewHow to use our weather pages